Location: Krasnoyarskiy Pitomnik
(51.1333°N, 71.6167°E)
Time: 08:42:22
(UTC+00:00)

SL-16 R/B - Pass Details

Date: 22 October 2021
Orbit: 842 x 846 km, 71.0° (Epoch: 07 December)

Event Time Altitude Azimuth Distance (km) Brightness Sun altitude
Exits shadow 22:12:48 42° 92° (E) 1,188 3.2 -34.0°
Drops below altitude 10° 22:17:01 10° 128° (SE) 2,466 4.9 -33.4°
Sets 22:19:32 0° 134° (SE) 3,398 5.6 -33.1°
